Find QuikScat

NORAD ID: 25789 Int'l Des: 1999-034 Owner: GSFC Country: US operational
LEOCIRCULARRETROGRADESSO

Live Position

Loading 3D Globe...

About QuikScat

Description loading...

Upcoming Passes

Passes for default location (London). Set your location on the main map for personalized predictions.

Altitude History

Loading altitude history...

Two-Line Element Set

1 25789U 99034A 26107.15931405 .00000205 00000-0 59293-4 0 9999
2 25789 98.2778 348.6713 0096442 109.5399 251.6242 14.51686177403664
Epoch: Apr 17, 2026 • Age: 12 hours

Current Status

Altitude 764.4 km
Velocity 7.45 km/s
Sub-Earth Point -15.96°S, 84.19°W
Launch Date Jun 20, 1999
Age 26.8 years
Type other

Technical Details

Classification Payload
Mass 970.00 kg
Dry Mass 870.00 kg
Total Mass 970.00 kg
Length 2.20 m
Diameter 1.70 m
Span 3.80 m
Shape Box + 2 Pan
Manufacturer BALL
Bus Type BCP-2000
Phase Status In Orbit
Owner/State GSFC/US

Most Searched